Tracking 31080 objects as of 20-Jul-2025
HD Live streaming from Space Station
objects crossing your sky now

CRRES DEB (CANISTER)

Track CRRES DEB (CANISTER) now!


NORAD ID: 29531
Int'l Code: 1990-065Y
Perigee: 326.7 km
Apogee: 32,735.6 km
Inclination: 17.3 °
Period: 574.9 minutes
Semi major axis: 22902 km
RCS: 0.0683 m2 (small)
Launch date: July 25, 1990
Source: United States (US)
Launch site: AIR FORCE EASTERN TEST RANGE (AFETR)

Note: This is SATELLITE DEBRIS
Your satellite tracking list
Your tracking list is empty




NASA's NSSDC Master Catalog

Two Line Element Set (TLE):
1 29531U 90065Y   25196.95281119  .00000623  00000-0  55653-3 0  9997
2 29531  17.3320 166.7663 7075517 245.2572  28.8229  2.50488706174106
Source of the keplerian elements: AFSPC